sat.trackr.live / text

‹ back to catalog

2023-003E

NORAD 55137 · 2023-003E

PAYLOAD ACTIVE UNKNOWN

§ Identity

Operator
Country
PRC
Launch date
2023-01-09
Launch site
JSC
Launch vehicle
Mass (kg)
RCS (m²)

External: N2YO · Heavens-Above · Gunter

§ Orbital elements

Epoch: 2026-05-25T04:51:25.968096Z

Period
92.66 min
Inclination
97.1440°
Eccentricity
0.0004332
Mean motion
15.54065820 rev/d
Perigee alt
401.9 km
Apogee alt
407.8 km
Semi-major
6,783.0 km
B*
3.4399e-4
RAAN
220.6753°
Arg perigee
173.8273°
Mean anomaly
186.3035°
Rev number
18,869

§ Raw data

2023-003E1 55137U 23003E   26145.20238389  .00022231  00000+0  34399-3 0  99922 55137  97.1440 220.6753 0004332 173.8273 186.3035 15.54065820188690

JSON: /api/v1/satellites/55137 · /tle

For live sub-satellite position, see the globe view (requires WebGL).

§ Visibility from observer

Set your observer location to see the next 7 days of passes ≥ 10°. The values pass through the URL so the page stays shareable.

No JS? Fill the form by hand. The geolocation button needs JavaScript.